This demonstration page uses our WeatherBlox Daily Observations layout. Learn more.

Hourly Observations for December 15, 2017

Temp ( °F °C ) Dew Point ( °F °C ) Humidity (%) Winds ( mph kmh ) Pressure ( in mb ) Visibility ( mi km ) Precip ( " mm )
12:54 am 00:54 Cloudy 35 1.7 29 -1.7 78 78 NW 9 15 30.18 1022 10 16.0934 0 0
1:54 am 01:54 Cloudy 34 1.1 28 -2.2 79 79 WNW 3 6 30.18 1022 10 16.0934 0 0
2:54 am 02:54 Cloudy 33 0.6 27 -2.8 78 78 W 8 13 30.18 1022 10 16.0934 0 0
3:54 am 03:54 Cloudy 33 0.6 27 -2.8 78 78 W 9 15 30.17 1022 10 16.0934 0 0
4:54 am 04:54 Cloudy 33 0.6 27 -2.8 78 78 W 8 13 30.15 1021 10 16.0934 0 0
5:54 am 05:54 Mostly Cloudy 30 -1.1 25 -3.9 82 82 WSW 12 19 30.14 1021 10 16.0934 0 0
6:54 am 06:54 Clear 28 -2.2 22 -5.6 78 78 WSW 9 15 30.13 1020 10 16.0934 0 0
7:54 am 07:54 Sunny 27 -2.8 21 -6.1 78 78 WSW 8 13 30.12 1020 10 16.0934 0 0
8:54 am 08:54 Sunny 30 -1.1 22 -5.6 72 72 WSW 7 11 30.11 1020 10 16.0934 0 0
9:54 am 09:54 Sunny 36 2.2 25 -3.9 64 64 SW 8 13 30.09 1019 10 16.0934 0 0
10:54 am 10:54 Sunny 39 3.9 27 -2.8 62 62 SW 17 28 30.06 1018 10 16.0934 0 0
11:54 am 11:54 Sunny 43 6.1 26 -3.3 51 51 SW 18 30 30.02 1017 10 16.0934 0 0
12:54 pm 12:54 Sunny 46 7.8 26 -3.3 46 46 SW 18 30 29.98 1015 10 16.0934 0 0
1:54 pm 13:54 Sunny 48 8.9 25 -3.9 41 41 SW 18 30 29.93 1014 10 16.0934 0 0
2:54 pm 14:54 Sunny 49 9.4 26 -3.3 41 41 SW 16 26 29.91 1013 10 16.0934 0 0
3:54 pm 15:54 Sunny 49 9.4 26 -3.3 41 41 SSW 17 28 29.88 1012 10 16.0934 0 0
4:54 pm 16:54 Sunny 48 8.9 25 -3.9 41 41 SSW 14 22 29.86 1011 10 16.0934 0 0
5:54 pm 17:54 Clear 45 7.2 25 -3.9 46 46 SSW 13 20 29.85 1011 10 16.0934 0 0
6:54 pm 18:54 Clear 43 6.1 25 -3.9 49 49 SSW 10 17 29.84 1010 10 16.0934 0 0
7:54 pm 19:54 Clear 44 6.7 24 -4.4 45 45 SW 15 24 29.82 1010 10 16.0934 0 0
8:54 pm 20:54 Clear 44 6.7 24 -4.4 45 45 SW 15 24 29.81 1010 10 16.0934 0 0
9:54 pm 21:54 Clear 41 5 23 -5 49 49 SW 9 15 29.8 1009 10 16.0934 0 0
10:54 pm 22:54 Clear 40 4.4 22 -5.6 49 49 SSW 10 17 29.79 1009 10 16.0934 0 0
11:54 pm 23:54 Clear 39 3.9 21 -6.1 48 48 SSW 9 15 29.78 1008 10 16.0934 0 0

Powered by AerisWeather